{"data":{"norad_id":67269,"intl_designator":"2025-313X","name":"2025-313X","alt_names":[],"object_type":"PAYLOAD","status":"ACTIVE","operator":null,"country":"TBD","launch_date":"2025-12-28","launch_site_code":"VOSTO","launch_vehicle":null,"mission":null,"orbit_class":"UNKNOWN","rcs_meters":null,"size_class":null,"mass_kg":null,"dimensions":null,"purposes":[],"wikipedia_slug":null,"has_3d_model":false,"image_url":null,"decayed_at":null,"tle_current":{"epoch":"2026-09-20T02:46:29.751168Z","epoch_age_seconds":136332,"freshness":"FRESH","line1":"1 67269U 25313X   26263.11562212  .00008440  00000+0  32100-3 0  9997","line2":"2 67269  97.3889 337.0282 0013623  32.3997 327.8075 15.26934391 40446","mean_motion":15.26934391,"eccentricity":0.0013623,"inclination_deg":97.3889,"raan_deg":337.0282,"arg_perigee_deg":32.3997,"mean_anomaly_deg":327.8075,"bstar":0.000321,"rev_number":4044,"period_min":94.306606000074,"perigee_km":475.63333443304,"apogee_km":494.33259108357,"semimajor_km":6863.1199627583,"source":"CELESTRAK","updated_at":"2026-09-21T09:00:16.542884Z"}}}